Regional Weather Roundup
Issued by NWS

Home | Current Version | Previous Version | Text Only | Print | Product List | Glossary On
Versions: 1 2 3 4 5 6 7 8 9 10 11 12 13 14 15 16 17 18 19 20 21 22 23 24 25 26 27 28 29 30 31 32 33 34 35 36 37 38 39 40 41 42 43 44 45 46 47 48 49 50
912
ASUS43 KLSX 221907
RWRMO

WEATHER SUMMARY FOR MISSOURI
NATIONAL WEATHER SERVICE SPRINGFIELD MO
200 PM CDT SUN APR 22 2018

NOTE: "FAIR" INDICATES FEW OR NO CLOUDS BELOW 12,000 FEET WITH NO
       SIGNIFICANT WEATHER AND/OR OBSTRUCTIONS TO VISIBILITY.
       CURRENT SKY AND/OR WEATHER CONDITIONS ARE NOT AVAILABLE FOR
       CHILLICOTHE AND FARMINGTON.

MOZ001>031-035>038-043-044-053-054-222000-
...NORTHERN AND WESTERN MISSOURI...

CITY           SKY/WX    TMP DP  RH WIND       PRES   REMARKS
KANSAS CTY INT CLOUDY    61  43  51 NE14      30.10F
KANSAS C DTWN  CLOUDY    62  46  55 E9G22     30.08F
LEE`S SUMMIT   CLOUDY    56  44  64 NE13G23   30.10F
ST JOSEPH      MOSUNNY   60  41  49 NE9       30.14F
CHILLICOTHE      N/A     64  40  41 NE10      30.14F
KIRKSVILLE     MOSUNNY   68  41  37 NE18G24   30.13F

$$
MOZ066>068-077>081-088>096-101>105-222000-
...SOUTHWEST MISSOURI...

CITY           SKY/WX    TMP DP  RH WIND       PRES   REMARKS
SPRINGFIELD    CLOUDY    58  55  90 E14       29.96R
JOPLIN         LGT RAIN  54  53  97 NE7       29.98S
BRANSON        PTSUNNY   55  52  88 CALM      29.96S

$$
MOZ032>034-039>042-045>050-055>058-069>072-222000-
...CENTRAL MISSOURI...

CITY           SKY/WX    TMP DP  RH WIND       PRES   REMARKS
COLUMBIA       LGT RAIN  61  46  57 NE17G30   30.08F
JEFFERSON CITY CLOUDY    60  49  66 E5        30.06F
ROLLA          LGT RAIN  55  51  86 NE15      30.04F FOG
SEDALIA        LGT RAIN  57  50  77 NE12      30.09F
WHITEMAN AFB   LGT RAIN  55  47  76 NE15      30.04
WARRENSBURG    CLOUDY    54  46  76 NE9G17    30.09S
OSAGE BEACH    LGT RAIN  54  53  97 NE9       30.04F

$$
MOZ051-052-059>065-222000-
...EAST CENTRAL MISSOURI...

CITY           SKY/WX    TMP DP  RH WIND       PRES   REMARKS
ST LOUIS INTL  CLOUDY    57  42  57 E7        30.12R
SPIRIT OF STL  CLOUDY    58  43  57 NE13      30.09S
ST CHARLES     CLOUDY    57  39  51 NE10      30.11S

$$
MOZ072>076-082>087-097>100-106>115-222000-
...SOUTH CENTRAL AND SOUTHEAST MISSOURI...

CITY           SKY/WX    TMP DP  RH WIND       PRES   REMARKS
CAPE GIRARDEAU LGT RAIN  55  52  89 E14G25    30.00F
FARMINGTON     LGT RAIN  52  49  89 NE8       30.05F
POPLAR BLUFF   LGT RAIN  54  53  97 NE15      29.94F
WEST PLAINS    RAIN      53  51  93 NE10      29.96F FOG

$$




USA.gov is the U.S. government's official web portal to all federal, state and local government web resources and services.